Location: Newark
(48.9758°N, 29.9167°E)
Time: 18:11:39
(UTC+00:00)

ISS - Visible Passes

Search period start: 15 September 2019 00:00
Search period end: 25 September 2019 00:00
Orbit: 411 x 421 km, 51.6° (Epoch: 15 September)

Date Brightness Start Highest point End Pass type
(mag) Time Alt. Az. Time Alt. Az. Time Alt. Az.
15 Sep -2.1 01:59:40 20° S 01:59:40 20° S 02:01:15 10° SSE visible
19 Sep -1.7 17:04:50 10° SSE 17:06:19 13° SE 17:06:19 13° SE visible
20 Sep -2.9 17:51:00 10° SW 17:53:22 34° S 17:53:22 34° S visible
21 Sep -2.7 17:02:53 10° SSW 17:05:45 27° SE 17:07:15 19° ESE visible
21 Sep -1.4 18:38:57 10° WSW 18:40:10 21° WSW 18:40:10 21° WSW visible
22 Sep -4.0 17:50:25 10° WSW 17:53:45 81° SSE 17:53:52 78° ESE visible
23 Sep -3.7 17:01:59 10° SW 17:05:15 57° SSE 17:07:26 19° ENE visible
23 Sep -1.5 18:38:45 10° W 18:40:20 25° WNW 18:40:20 25° WNW visible
24 Sep -3.6 17:50:08 10° W 17:53:26 64° NNW 17:53:47 59° NNE visible
